Regional Weather Roundup
Issued by NWS

Home | Current Version | Previous Version | Text Only | Print | Product List | Glossary On
Versions: 1 2 3 4 5 6 7 8 9 10 11 12 13 14 15 16 17 18 19 20 21 22 23 24 25 26 27 28 29 30 31 32 33 34 35 36 37 38 39 40 41 42 43 44 45 46 47 48 49 50
000
ASUS43 KIND 241009
RWRIN

WEATHER ROUNDUP FOR INDIANA
NATIONAL WEATHER SERVICE INDIANAPOLIS IN
600 AM EDT THU APR 24 2014

NOTE: "FAIR" INDICATES FEW OR NO CLOUDS BELOW 12,000 FEET WITH NO
SIGNIFICANT WEATHER AND/OR OBSTRUCTIONS TO VISIBILITY.

* - STATION DOES NOT REPORT WEATHER SUCH AS PRECIPITATION OR FOG.

+ - STATION NOT QUALITY CONTROLLED BY THE NATIONAL WEATHER SERVICE.
    USE DATA WITH CAUTION...ESPECIALLY DEWPOINT AND RELATIVE
    HUMIDITY OBSERVATIONS.

INZ001>003-010>013-019-020-241100-
NORTHWEST INDIANA

CITY           SKY/WX    TMP DP  RH WIND       PRES   REMARKS
GARY /AIRPORT/ CLOUDY    43  36  75 NE12      30.07S
LA PORTE +     CLOUDY    45  34  65 E5        30.07S
MICHIGAN CITY+ CLOUDY    45  32  61 CALM      30.07S
MONTICELLO +   CLOUDY    49  38  65 NE6       30.05R
RENSSELAER +   CLOUDY    46  39  76 E8        30.05F
VALPARAISO     CLOUDY    42  37  82 E7        30.05F

$$

LMZ046-743>745-241100-
SOUTHERN LAKE MICHIGAN

STATION/POSITION TIME  TEMP WIND        PRES
                       AIR  DIR/SP/G
                 (UTC) (F)  (DEG/KT/KT) (MB)
MICHIGAN CITY    1000   45  360/  3/  4   N/A

$$

INZ004-005-014>016-021>024-241100-
NORTH CENTRAL INDIANA

CITY           SKY/WX    TMP DP  RH WIND       PRES   REMARKS
GOSHEN         CLOUDY    49  34  56 SE9       30.08S
LOGANSPORT +   CLOUDY    46  36  66 E5        30.08R
PERU/GRISSOM   CLOUDY    49  38  68 E6        30.07R
ROCHESTER +    CLOUDY    50  34  53 E5        30.08S
SOUTH BEND     CLOUDY    50  29  44 E7        30.09S
WARSAW +       CLOUDY    46  32  57 E6        30.09R

$$

INZ006>009-017-018-025>027-241100-
NORTHEAST INDIANA

CITY           SKY/WX    TMP DP  RH WIND       PRES   REMARKS
ANGOLA *+      CLOUDY    45  34  65 SE5       30.11R
AUBURN +       CLOUDY    45  32  61 CALM      30.11R
FORT WAYNE     CLOUDY    46  34  62 E8        30.10S

$$

INZ028-029-035-036-043>045-051>053-241100-
WEST CENTRAL INDIANA

CITY           SKY/WX    TMP DP  RH WIND       PRES   REMARKS
GREENCASTLE +  MOCLDY    46  36  66 E6        30.03S
LAFAYETTE      CLOUDY    49  36  61 E8        30.04R
TERRE HAUTE    MOCLDY    48  36  63 E6        30.01R

$$

INZ030>032-037>040-046>048-054>057-064-065-241100-
CENTRAL INDIANA

CITY           SKY/WX    TMP DP  RH WIND       PRES   REMARKS
CP ATTERBURY + MOCLDY    48  36  61 E6        30.05R
INDIANAPOLIS   CLOUDY    50  33  52 E10       30.04R
-EAGLE CREEK   CLOUDY    49  33  54 E10       30.04R
KOKOMO *+      CLOUDY    48  36  61 SE7       30.07S
MARION +       CLOUDY    48  33  56 SE8       30.09R
MT COMFORT *+  CLOUDY    48  37  66 SE8       30.07R
SHELBYVILLE    CLOUDY    51  35  54 E10       30.04S
ZIONSVILLE +   CLOUDY    50  35  56 E7        30.06S

$$

INZ033-034-041-042-049-050-058-059-241100-
EAST CENTRAL INDIANA

CITY           SKY/WX    TMP DP  RH WIND       PRES   REMARKS
MUNCIE           N/A     47  34  60 SE8       30.07R

$$

INZ060-061-067>069-081>083-085>088-241100-
SOUTHWEST INDIANA

CITY           SKY/WX    TMP DP  RH WIND       PRES   REMARKS
EVANSVILLE     MOCLDY    51  34  52 SE3       29.99S
HUNTINGBURG *+ CLOUDY    48  34  57 SE8       30.00S
WASHINGTON +   CLOUDY    49  38  66 SE6       29.99S

$$

INZ062-063-066-070>080-084-089>092-241100-
SOUTH CENTRAL AND SOUTHEAST INDIANA

CITY           SKY/WX    TMP DP  RH WIND       PRES   REMARKS
BLOOMINGTON    MOCLDY    51  33  50 SE9       30.01S

$$




USA.gov is the U.S. government's official web portal to all federal, state and local government web resources and services.